Location: Bremen
(53.0833°N, 8.8000°E)
Time: 01:38:09
(UTC+02:00)

X-37B - Pass Details

Date: 03 July 2022
Orbit: 328 x 343 km, 45.0° (Epoch: 12 August)

Event Time Altitude Azimuth Distance (km) Brightness Sun altitude
Rises 23:35:30 0° 253° (WSW) 2,093 4.4 -10.1°
Reaches altitude 10° 23:38:11 10° 225° (SW) 1,259 3.0 -10.3°
Maximum altitude 23:39:40 13° 193° (SSW) 1,085 2.4 -10.4°
Enters shadow 23:39:48 13° 190° (S) 1,087 2.4 -10.4°
